User: anonymous   Login
Location: Unspecified
(0.0000°N, 0.0000°E)
Time: 08:33:43
(UTC+00:00)
Language:

MUOS 5 - Orbit

View from above orbital plane
View from above orbital plane
View from above satellite
View from above satellite

Ground track
Ground track

The orbit data is extracted from the following two-line orbital elements,

1 41622U 16041A   18347.92871636 -.00000139  00000-0  00000+0 0  9995
2 41622   8.3625 312.9062 0204001 205.6543 153.3895  1.00273677  9574
Epoch (UTC): 13 December 2018 22:17:21
Eccentricity: 0.0204001
inclination: 8.3625°
perigee height: 34925 km
apogee height: 36646 km
right ascension of ascending node: 312.9062°
argument of perigee: 205.6543°
revolutions per day: 1.00273677
mean anomaly at epoch: 153.3895°
orbit number at epoch: 957

The dashed part of the orbit path shows where the satellite is in the earth's shadow,  

DLR